Regional Weather Roundup
Issued by NWS

Home | Current Version | Previous Version | Graphics & Text | Print | Product List | Glossary On
Versions: 1 2 3 4 5 6 7 8 9 10 11 12 13 14 15 16 17 18 19 20 21 22 23 24 25 26 27 28 29 30 31 32 33 34 35 36 37 38 39 40 41 42 43 44 45 46 47 48 49 50
000
ASUS43 KIND 301059
RWRIN

WEATHER ROUNDUP FOR INDIANA
NATIONAL WEATHER SERVICE INDIANAPOLIS IN
700 AM EDT WED JUL 30 2014

NOTE: "FAIR" INDICATES FEW OR NO CLOUDS BELOW 12,000 FEET WITH NO
SIGNIFICANT WEATHER AND/OR OBSTRUCTIONS TO VISIBILITY.

* - STATION DOES NOT REPORT WEATHER SUCH AS PRECIPITATION OR FOG.

+ - STATION NOT QUALITY CONTROLLED BY THE NATIONAL WEATHER SERVICE.
    USE DATA WITH CAUTION...ESPECIALLY DEWPOINT AND RELATIVE
    HUMIDITY OBSERVATIONS.

INZ001>003-010>013-019-020-301200-
NORTHWEST INDIANA

CITY           SKY/WX    TMP DP  RH WIND       PRES   REMARKS
GARY /AIRPORT/ MOCLDY    59  55  88 W6        30.03R
VALPARAISO     MOCLDY    59  55  87 NW5       30.03R

$$

LMZ046-743>745-301200-
SOUTHERN LAKE MICHIGAN

STATION/POSITION TIME  TEMP WIND        PRES
                       AIR  DIR/SP/G
                 (UTC) (F)  (DEG/KT/KT) (MB)
MICHIGAN CITY    1000   65  260/  8/ 10   N/A

$$

INZ004-005-014>016-021>024-301200-
NORTH CENTRAL INDIANA

CITY           SKY/WX    TMP DP  RH WIND       PRES   REMARKS
ELKHART        FOG       55  55 100 CALM      30.02  VSB 1/2
GOSHEN         PTCLDY    57  55  93 W3        30.02R FOG
SOUTH BEND     CLEAR     56  53  90 CALM      30.03R
WARSAW +       PTCLDY    55  55 100 W3        30.03R FOG

$$

INZ006>009-017-018-025>027-301200-
NORTHEAST INDIANA

CITY           SKY/WX    TMP DP  RH WIND       PRES   REMARKS
ANGOLA *+      CLEAR     57  48  72 W5        30.02R
FORT WAYNE     MOCLDY    59  57  93 SW6       30.02R FOG

$$

INZ028-029-035-036-043>045-051>053-301200-
WEST CENTRAL INDIANA

CITY           SKY/WX    TMP DP  RH WIND       PRES   REMARKS
GREENCASTLE +  CLEAR     54  54 100 CALM      30.06S
LAFAYETTE      RAIN      58  57  97 CALM      30.04R
TERRE HAUTE    CLEAR     55  52  89 CALM      30.07R

$$

INZ030>032-037>040-046>048-054>057-064-065-301200-
CENTRAL INDIANA

CITY           SKY/WX    TMP DP  RH WIND       PRES   REMARKS
INDIANAPOLIS   PTCLDY    57  56  96 W7        30.04R
-EAGLE CREEK   PTCLDY    59  56  89 VRB3      30.05R
KOKOMO *+      PTCLDY    57  55  94 W6        30.03S
MT COMFORT *+  CLEAR     57 N/A N/A SW3       30.05R
SHELBYVILLE    CLEAR     58  56  93 S5        30.05R

$$

INZ033-034-041-042-049-050-058-059-301200-
EAST CENTRAL INDIANA

CITY           SKY/WX    TMP DP  RH WIND       PRES   REMARKS
MUNCIE         CLEAR     59  56  89 SW8       30.04R

$$

INZ060-061-067>069-081>083-085>088-301200-
SOUTHWEST INDIANA

CITY           SKY/WX    TMP DP  RH WIND       PRES   REMARKS
EVANSVILLE     CLEAR     61  56  83 W6        30.09R

$$

INZ062-063-066-070>080-084-089>092-301200-
SOUTH CENTRAL AND SOUTHEAST INDIANA

CITY           SKY/WX    TMP DP  RH WIND       PRES   REMARKS
BLOOMINGTON    CLEAR     58  54  86 CALM      30.07R

$$



USA.gov is the U.S. government's official web portal to all federal, state and local government web resources and services.